Home > Weather > Vaduz > Past weeks

Flag for Liechtenstein Past Weather in Vaduz, Liechtenstein — Yesterday and Last 2 Weeks

Now
65 °F

Overcast.


Feels Like: 65 °F
Forecast: 64 / 80 °F
Wind: 2 mph from North

Location: Vaduz

Current Time: Jul 24, 2016 at 3:04:00 AM

Latest Report: Jul 24, 2016 at 2:00 AM


Visibility: 7 mi

Pressure: 30.11 "Hg

Humidity: 95%

Dew Point: 63 °F

Location of VaduzLocation

Past Weather in Vaduz — Graph

°F

Vaduz Temperature Yesterday

Maximum temperature yesterday: 72 °F (at 5:00 PM)
Minimum temperature yesterday: 61 °F (at 6:00 AM)
Average temperature yesterday: 67 °F

High & Low Weather Summary for the Past Weeks

 TemperatureHumidityPressure
High88 °F (Jul 20, 5:00 PM)96% (Jul 16, 4:00 AM)30.39 "Hg (Jul 16, 4:00 AM)
Low47 °F (Jul 16, 5:00 AM)39% (Jul 16, 5:00 PM)29.82 "Hg (Jul 11, 4:00 PM)
Average67 °F72%30.08 "Hg
* Reported Jul 9 1:00 AM — Jul 24 1:00 AM, Vaduz, Weather by CustomWeather, © 2016

Note: Actual official high and low records may vary slightly from our data, if they occured in-between our weather recording intervals... More about our weather records

Advertising

Vaduz Weather History for the Previous 24 Hours

Scroll right to see more
 ConditionsComfort  
Time TempWeatherWind HumidityBarometerVisibility
1:00 AM
Sun, Jul 24
65 °FMild.5 mph90%30.12 "HgN/A
12:00 AM66 °FMild.2 mph86%30.11 "HgN/A
11:00 PM
Sat, Jul 23
65 °FFog.No wind88%30.10 "Hg6 mi
10:00 PM66 °FMild.2 mph85%30.08 "HgN/A
9:00 PM69 °FMild.No wind82%30.05 "HgN/A
8:00 PM71 °FFog.1 mph78%30.03 "Hg7 mi
7:00 PM72 °FMild.1 mph70%30.02 "HgN/A
6:00 PM72 °FMild.1 mph74%30.01 "HgN/A
5:00 PM72 °FFog.1 mph70%30.01 "Hg4 mi
4:00 PM72 °FMild.2 mph74%30.03 "HgN/A
3:00 PM71 °FMild.No wind71%30.04 "HgN/A
2:00 PM71 °FOvercast.1 mph72%30.04 "Hg4 mi
1:00 PM69 °FMild.No wind74%30.05 "HgN/A
12:00 PM68 °FMild.No wind77%30.04 "HgN/A
11:00 AM67 °FPartly sunny.2 mph80%30.04 "Hg4 mi
10:00 AM67 °FMild.1 mph80%30.03 "HgN/A
9:00 AM67 °FMild.1 mph82%30.03 "HgN/A
8:00 AM64 °FFog.3 mph88%30.05 "Hg4 mi
7:00 AM62 °FMild.5 mph92%30.05 "HgN/A
6:00 AM61 °FCool.1 mph95%30.03 "HgN/A
5:00 AM62 °FMild.1 mph93%30.03 "HgN/A
4:00 AM65 °FMild.1 mph86%30.02 "HgN/A
3:00 AM66 °FMild.3 mph82%30.01 "HgN/A
Weather by CustomWeather, © 2016

See weather overviewHow to use our weather pages